<?xml version="1.0" encoding="UTF-8" standalone="no" ?>
<gpx xmlns="http://www.topografix.com/GPX/1/1" xmlns:xsi="http://www.w3.org/2001/XMLSchema-instance" xsi:schemaLocation="http://www.topografix.com/GPX/1/1 http://www.topografix.com/GPX/1/1/gpx.xsd" version="1.1" creator="VisuGPX - https://www.visugpx.com">
  <metadata>
    <name>Beaucouzé - CAP 10km</name>
    <desc><![CDATA[Départ hotel b&b, un peu de route pour le transfert puis très beau chemin dans les bois. Sympa.]]></desc>
  </metadata>
  <trk>
    <name><![CDATA[Sequence 1]]></name>
    <trkseg>
      <trkpt lat="47.46741" lon="-0.62824">
        <ele>71</ele>
        <time>2015-08-25T17:33:58Z</time>
      </trkpt>
      <trkpt lat="47.46738" lon="-0.62813">
        <ele>71</ele>
        <time>2015-08-25T17:34:04Z</time>
      </trkpt>
      <trkpt lat="47.46737" lon="-0.62806">
        <ele>71</ele>
        <time>2015-08-25T17:34:08Z</time>
      </trkpt>
      <trkpt lat="47.46733" lon="-0.62799">
        <ele>71</ele>
        <time>2015-08-25T17:34:14Z</time>
      </trkpt>
      <trkpt lat="47.46721" lon="-0.62808">
        <ele>71</ele>
        <time>2015-08-25T17:34:20Z</time>
      </trkpt>
      <trkpt lat="47.46713" lon="-0.62825">
        <ele>71</ele>
        <time>2015-08-25T17:34:27Z</time>
      </trkpt>
      <trkpt lat="47.46706" lon="-0.62842">
        <ele>71</ele>
        <time>2015-08-25T17:34:32Z</time>
      </trkpt>
      <trkpt lat="47.46695" lon="-0.62872">
        <ele>71</ele>
        <time>2015-08-25T17:34:40Z</time>
      </trkpt>
      <trkpt lat="47.46687" lon="-0.62885">
        <ele>71</ele>
        <time>2015-08-25T17:34:44Z</time>
      </trkpt>
      <trkpt lat="47.46677" lon="-0.62908">
        <ele>71</ele>
        <time>2015-08-25T17:34:51Z</time>
      </trkpt>
      <trkpt lat="47.4667" lon="-0.62926">
        <ele>71</ele>
        <time>2015-08-25T17:34:56Z</time>
      </trkpt>
      <trkpt lat="47.46663" lon="-0.62952">
        <ele>71</ele>
        <time>2015-08-25T17:35:03Z</time>
      </trkpt>
      <trkpt lat="47.46656" lon="-0.62998">
        <ele>72</ele>
        <time>2015-08-25T17:35:12Z</time>
      </trkpt>
      <trkpt lat="47.46653" lon="-0.63001">
        <ele>72</ele>
        <time>2015-08-25T17:35:14Z</time>
      </trkpt>
      <trkpt lat="47.46646" lon="-0.63025">
        <ele>72</ele>
        <time>2015-08-25T17:35:20Z</time>
      </trkpt>
      <trkpt lat="47.4664" lon="-0.63057">
        <ele>72</ele>
        <time>2015-08-25T17:35:26Z</time>
      </trkpt>
      <trkpt lat="47.46628" lon="-0.63094">
        <ele>73</ele>
        <time>2015-08-25T17:35:37Z</time>
      </trkpt>
      <trkpt lat="47.46626" lon="-0.63097">
        <ele>73</ele>
        <time>2015-08-25T17:35:38Z</time>
      </trkpt>
      <trkpt lat="47.46619" lon="-0.63116">
        <ele>73</ele>
        <time>2015-08-25T17:35:44Z</time>
      </trkpt>
      <trkpt lat="47.46607" lon="-0.63157">
        <ele>73</ele>
        <time>2015-08-25T17:35:55Z</time>
      </trkpt>
      <trkpt lat="47.46606" lon="-0.63166">
        <ele>74</ele>
        <time>2015-08-25T17:35:57Z</time>
      </trkpt>
      <trkpt lat="47.46605" lon="-0.63196">
        <ele>74</ele>
        <time>2015-08-25T17:36:02Z</time>
      </trkpt>
      <trkpt lat="47.46595" lon="-0.63241">
        <ele>74</ele>
        <time>2015-08-25T17:36:13Z</time>
      </trkpt>
      <trkpt lat="47.46594" lon="-0.63245">
        <ele>74</ele>
        <time>2015-08-25T17:36:14Z</time>
      </trkpt>
      <trkpt lat="47.46588" lon="-0.63267">
        <ele>75</ele>
        <time>2015-08-25T17:36:21Z</time>
      </trkpt>
      <trkpt lat="47.46587" lon="-0.63288">
        <ele>75</ele>
        <time>2015-08-25T17:36:26Z</time>
      </trkpt>
      <trkpt lat="47.46609" lon="-0.63317">
        <ele>75</ele>
        <time>2015-08-25T17:36:35Z</time>
      </trkpt>
      <trkpt lat="47.46619" lon="-0.63318">
        <ele>74</ele>
        <time>2015-08-25T17:36:38Z</time>
      </trkpt>
      <trkpt lat="47.46642" lon="-0.6332">
        <ele>74</ele>
        <time>2015-08-25T17:36:45Z</time>
      </trkpt>
      <trkpt lat="47.46649" lon="-0.63331">
        <ele>74</ele>
        <time>2015-08-25T17:36:50Z</time>
      </trkpt>
      <trkpt lat="47.46664" lon="-0.6334">
        <ele>74</ele>
        <time>2015-08-25T17:36:56Z</time>
      </trkpt>
      <trkpt lat="47.46661" lon="-0.63367">
        <ele>74</ele>
        <time>2015-08-25T17:37:04Z</time>
      </trkpt>
      <trkpt lat="47.46657" lon="-0.63406">
        <ele>74</ele>
        <time>2015-08-25T17:37:13Z</time>
      </trkpt>
      <trkpt lat="47.46656" lon="-0.63414">
        <ele>74</ele>
        <time>2015-08-25T17:37:15Z</time>
      </trkpt>
      <trkpt lat="47.46656" lon="-0.63439">
        <ele>75</ele>
        <time>2015-08-25T17:37:21Z</time>
      </trkpt>
      <trkpt lat="47.46659" lon="-0.63459">
        <ele>75</ele>
        <time>2015-08-25T17:37:26Z</time>
      </trkpt>
      <trkpt lat="47.46669" lon="-0.6348">
        <ele>75</ele>
        <time>2015-08-25T17:37:32Z</time>
      </trkpt>
      <trkpt lat="47.4668" lon="-0.63507">
        <ele>75</ele>
        <time>2015-08-25T17:37:40Z</time>
      </trkpt>
      <trkpt lat="47.46685" lon="-0.63522">
        <ele>75</ele>
        <time>2015-08-25T17:37:44Z</time>
      </trkpt>
      <trkpt lat="47.46694" lon="-0.63561">
        <ele>76</ele>
        <time>2015-08-25T17:37:54Z</time>
      </trkpt>
      <trkpt lat="47.46694" lon="-0.63588">
        <ele>76</ele>
        <time>2015-08-25T17:38:01Z</time>
      </trkpt>
      <trkpt lat="47.46693" lon="-0.63592">
        <ele>76</ele>
        <time>2015-08-25T17:38:02Z</time>
      </trkpt>
      <trkpt lat="47.46679" lon="-0.63617">
        <ele>77</ele>
        <time>2015-08-25T17:38:10Z</time>
      </trkpt>
      <trkpt lat="47.46672" lon="-0.63629">
        <ele>77</ele>
        <time>2015-08-25T17:38:14Z</time>
      </trkpt>
      <trkpt lat="47.46655" lon="-0.63637">
        <ele>78</ele>
        <time>2015-08-25T17:38:21Z</time>
      </trkpt>
      <trkpt lat="47.46643" lon="-0.63643">
        <ele>78</ele>
        <time>2015-08-25T17:38:26Z</time>
      </trkpt>
      <trkpt lat="47.46618" lon="-0.63656">
        <ele>80</ele>
        <time>2015-08-25T17:38:36Z</time>
      </trkpt>
      <trkpt lat="47.46613" lon="-0.63658">
        <ele>80</ele>
        <time>2015-08-25T17:38:38Z</time>
      </trkpt>
      <trkpt lat="47.46599" lon="-0.63668">
        <ele>81</ele>
        <time>2015-08-25T17:38:44Z</time>
      </trkpt>
      <trkpt lat="47.46579" lon="-0.63679">
        <ele>81</ele>
        <time>2015-08-25T17:38:52Z</time>
      </trkpt>
      <trkpt lat="47.4657" lon="-0.63684">
        <ele>81</ele>
        <time>2015-08-25T17:38:56Z</time>
      </trkpt>
      <trkpt lat="47.46554" lon="-0.63689">
        <ele>81</ele>
        <time>2015-08-25T17:39:02Z</time>
      </trkpt>
      <trkpt lat="47.46541" lon="-0.63694">
        <ele>82</ele>
        <time>2015-08-25T17:39:08Z</time>
      </trkpt>
      <trkpt lat="47.46528" lon="-0.63703">
        <ele>82</ele>
        <time>2015-08-25T17:39:14Z</time>
      </trkpt>
      <trkpt lat="47.46514" lon="-0.63714">
        <ele>83</ele>
        <time>2015-08-25T17:39:20Z</time>
      </trkpt>
      <trkpt lat="47.465" lon="-0.63723">
        <ele>83</ele>
        <time>2015-08-25T17:39:26Z</time>
      </trkpt>
      <trkpt lat="47.46484" lon="-0.63727">
        <ele>83</ele>
        <time>2015-08-25T17:39:32Z</time>
      </trkpt>
      <trkpt lat="47.4646" lon="-0.63724">
        <ele>83</ele>
        <time>2015-08-25T17:39:41Z</time>
      </trkpt>
      <trkpt lat="47.46453" lon="-0.63721">
        <ele>83</ele>
        <time>2015-08-25T17:39:44Z</time>
      </trkpt>
      <trkpt lat="47.46439" lon="-0.63713">
        <ele>82</ele>
        <time>2015-08-25T17:39:50Z</time>
      </trkpt>
      <trkpt lat="47.46415" lon="-0.63691">
        <ele>82</ele>
        <time>2015-08-25T17:40:01Z</time>
      </trkpt>
      <trkpt lat="47.46402" lon="-0.63689">
        <ele>82</ele>
        <time>2015-08-25T17:40:06Z</time>
      </trkpt>
      <trkpt lat="47.46397" lon="-0.63686">
        <ele>82</ele>
        <time>2015-08-25T17:40:08Z</time>
      </trkpt>
      <trkpt lat="47.46385" lon="-0.63672">
        <ele>81</ele>
        <time>2015-08-25T17:40:14Z</time>
      </trkpt>
      <trkpt lat="47.46367" lon="-0.63658">
        <ele>81</ele>
        <time>2015-08-25T17:40:21Z</time>
      </trkpt>
      <trkpt lat="47.46359" lon="-0.63644">
        <ele>81</ele>
        <time>2015-08-25T17:40:27Z</time>
      </trkpt>
      <trkpt lat="47.46347" lon="-0.63641">
        <ele>81</ele>
        <time>2015-08-25T17:40:32Z</time>
      </trkpt>
      <trkpt lat="47.4632" lon="-0.63624">
        <ele>80</ele>
        <time>2015-08-25T17:40:43Z</time>
      </trkpt>
      <trkpt lat="47.46317" lon="-0.63626">
        <ele>80</ele>
        <time>2015-08-25T17:40:44Z</time>
      </trkpt>
      <trkpt lat="47.46301" lon="-0.63631">
        <ele>79</ele>
        <time>2015-08-25T17:40:50Z</time>
      </trkpt>
      <trkpt lat="47.46276" lon="-0.63631">
        <ele>78</ele>
        <time>2015-08-25T17:40:59Z</time>
      </trkpt>
      <trkpt lat="47.46258" lon="-0.63644">
        <ele>76</ele>
        <time>2015-08-25T17:41:07Z</time>
      </trkpt>
      <trkpt lat="47.46252" lon="-0.63646">
        <ele>76</ele>
        <time>2015-08-25T17:41:09Z</time>
      </trkpt>
      <trkpt lat="47.4624" lon="-0.6365">
        <ele>76</ele>
        <time>2015-08-25T17:41:14Z</time>
      </trkpt>
      <trkpt lat="47.46228" lon="-0.6366">
        <ele>75</ele>
        <time>2015-08-25T17:41:20Z</time>
      </trkpt>
      <trkpt lat="47.46215" lon="-0.63671">
        <ele>75</ele>
        <time>2015-08-25T17:41:26Z</time>
      </trkpt>
      <trkpt lat="47.46194" lon="-0.63685">
        <ele>74</ele>
        <time>2015-08-25T17:41:35Z</time>
      </trkpt>
      <trkpt lat="47.46175" lon="-0.63695">
        <ele>74</ele>
        <time>2015-08-25T17:41:43Z</time>
      </trkpt>
      <trkpt lat="47.46173" lon="-0.63694">
        <ele>73</ele>
        <time>2015-08-25T17:41:44Z</time>
      </trkpt>
      <trkpt lat="47.46166" lon="-0.63703">
        <ele>73</ele>
        <time>2015-08-25T17:41:50Z</time>
      </trkpt>
      <trkpt lat="47.46164" lon="-0.63712">
        <ele>73</ele>
        <time>2015-08-25T17:42:01Z</time>
      </trkpt>
      <trkpt lat="47.46164" lon="-0.63712">
        <ele>73</ele>
        <time>2015-08-25T17:42:02Z</time>
      </trkpt>
      <trkpt lat="47.46161" lon="-0.63718">
        <ele>73</ele>
        <time>2015-08-25T17:42:08Z</time>
      </trkpt>
      <trkpt lat="47.46147" lon="-0.63725">
        <ele>72</ele>
        <time>2015-08-25T17:42:15Z</time>
      </trkpt>
      <trkpt lat="47.4613" lon="-0.63744">
        <ele>71</ele>
        <time>2015-08-25T17:42:23Z</time>
      </trkpt>
      <trkpt lat="47.46124" lon="-0.63751">
        <ele>70</ele>
        <time>2015-08-25T17:42:28Z</time>
      </trkpt>
      <trkpt lat="47.46117" lon="-0.63758">
        <ele>70</ele>
        <time>2015-08-25T17:42:32Z</time>
      </trkpt>
      <trkpt lat="47.46106" lon="-0.63773">
        <ele>70</ele>
        <time>2015-08-25T17:42:38Z</time>
      </trkpt>
      <trkpt lat="47.46093" lon="-0.63786">
        <ele>69</ele>
        <time>2015-08-25T17:42:45Z</time>
      </trkpt>
      <trkpt lat="47.46085" lon="-0.63795">
        <ele>68</ele>
        <time>2015-08-25T17:42:50Z</time>
      </trkpt>
      <trkpt lat="47.4605" lon="-0.6382">
        <ele>66</ele>
        <time>2015-08-25T17:43:00Z</time>
      </trkpt>
      <trkpt lat="47.46039" lon="-0.6383">
        <ele>65</ele>
        <time>2015-08-25T17:43:04Z</time>
      </trkpt>
      <trkpt lat="47.46028" lon="-0.63833">
        <ele>65</ele>
        <time>2015-08-25T17:43:08Z</time>
      </trkpt>
      <trkpt lat="47.46008" lon="-0.63838">
        <ele>64</ele>
        <time>2015-08-25T17:43:15Z</time>
      </trkpt>
      <trkpt lat="47.45992" lon="-0.63844">
        <ele>64</ele>
        <time>2015-08-25T17:43:20Z</time>
      </trkpt>
      <trkpt lat="47.45962" lon="-0.63864">
        <ele>64</ele>
        <time>2015-08-25T17:43:29Z</time>
      </trkpt>
      <trkpt lat="47.45953" lon="-0.6387">
        <ele>64</ele>
        <time>2015-08-25T17:43:32Z</time>
      </trkpt>
      <trkpt lat="47.45942" lon="-0.63894">
        <ele>64</ele>
        <time>2015-08-25T17:43:38Z</time>
      </trkpt>
      <trkpt lat="47.45921" lon="-0.63923">
        <ele>64</ele>
        <time>2015-08-25T17:43:48Z</time>
      </trkpt>
      <trkpt lat="47.45915" lon="-0.63928">
        <ele>64</ele>
        <time>2015-08-25T17:43:51Z</time>
      </trkpt>
      <trkpt lat="47.45905" lon="-0.63937">
        <ele>65</ele>
        <time>2015-08-25T17:43:56Z</time>
      </trkpt>
      <trkpt lat="47.4589" lon="-0.63952">
        <ele>65</ele>
        <time>2015-08-25T17:44:02Z</time>
      </trkpt>
      <trkpt lat="47.45868" lon="-0.63984">
        <ele>65</ele>
        <time>2015-08-25T17:44:11Z</time>
      </trkpt>
      <trkpt lat="47.45861" lon="-0.63991">
        <ele>66</ele>
        <time>2015-08-25T17:44:14Z</time>
      </trkpt>
      <trkpt lat="47.4585" lon="-0.64003">
        <ele>66</ele>
        <time>2015-08-25T17:44:21Z</time>
      </trkpt>
      <trkpt lat="47.45844" lon="-0.64016">
        <ele>66</ele>
        <time>2015-08-25T17:44:26Z</time>
      </trkpt>
      <trkpt lat="47.45829" lon="-0.64028">
        <ele>66</ele>
        <time>2015-08-25T17:44:32Z</time>
      </trkpt>
      <trkpt lat="47.45816" lon="-0.64043">
        <ele>67</ele>
        <time>2015-08-25T17:44:38Z</time>
      </trkpt>
      <trkpt lat="47.45799" lon="-0.64063">
        <ele>67</ele>
        <time>2015-08-25T17:44:45Z</time>
      </trkpt>
      <trkpt lat="47.45788" lon="-0.64075">
        <ele>68</ele>
        <time>2015-08-25T17:44:53Z</time>
      </trkpt>
      <trkpt lat="47.4578" lon="-0.64083">
        <ele>68</ele>
        <time>2015-08-25T17:44:57Z</time>
      </trkpt>
      <trkpt lat="47.45767" lon="-0.64095">
        <ele>68</ele>
        <time>2015-08-25T17:45:02Z</time>
      </trkpt>
      <trkpt lat="47.45742" lon="-0.6412">
        <ele>69</ele>
        <time>2015-08-25T17:45:13Z</time>
      </trkpt>
      <trkpt lat="47.4574" lon="-0.64122">
        <ele>69</ele>
        <time>2015-08-25T17:45:14Z</time>
      </trkpt>
      <trkpt lat="47.45727" lon="-0.64132">
        <ele>69</ele>
        <time>2015-08-25T17:45:20Z</time>
      </trkpt>
      <trkpt lat="47.45706" lon="-0.64131">
        <ele>69</ele>
        <time>2015-08-25T17:45:27Z</time>
      </trkpt>
      <trkpt lat="47.45687" lon="-0.6412">
        <ele>69</ele>
        <time>2015-08-25T17:45:35Z</time>
      </trkpt>
      <trkpt lat="47.45682" lon="-0.64116">
        <ele>69</ele>
        <time>2015-08-25T17:45:38Z</time>
      </trkpt>
      <trkpt lat="47.45674" lon="-0.64107">
        <ele>69</ele>
        <time>2015-08-25T17:45:44Z</time>
      </trkpt>
      <trkpt lat="47.4566" lon="-0.64096">
        <ele>69</ele>
        <time>2015-08-25T17:45:50Z</time>
      </trkpt>
      <trkpt lat="47.45648" lon="-0.64072">
        <ele>69</ele>
        <time>2015-08-25T17:45:59Z</time>
      </trkpt>
      <trkpt lat="47.45644" lon="-0.64063">
        <ele>69</ele>
        <time>2015-08-25T17:46:02Z</time>
      </trkpt>
      <trkpt lat="47.45626" lon="-0.64023">
        <ele>67</ele>
        <time>2015-08-25T17:46:13Z</time>
      </trkpt>
      <trkpt lat="47.45623" lon="-0.64015">
        <ele>67</ele>
        <time>2015-08-25T17:46:15Z</time>
      </trkpt>
      <trkpt lat="47.45617" lon="-0.63997">
        <ele>67</ele>
        <time>2015-08-25T17:46:20Z</time>
      </trkpt>
      <trkpt lat="47.45601" lon="-0.63964">
        <ele>67</ele>
        <time>2015-08-25T17:46:29Z</time>
      </trkpt>
      <trkpt lat="47.45591" lon="-0.63943">
        <ele>66</ele>
        <time>2015-08-25T17:46:35Z</time>
      </trkpt>
      <trkpt lat="47.4558" lon="-0.63918">
        <ele>65</ele>
        <time>2015-08-25T17:46:41Z</time>
      </trkpt>
      <trkpt lat="47.45575" lon="-0.63911">
        <ele>65</ele>
        <time>2015-08-25T17:46:44Z</time>
      </trkpt>
      <trkpt lat="47.45565" lon="-0.63886">
        <ele>65</ele>
        <time>2015-08-25T17:46:51Z</time>
      </trkpt>
      <trkpt lat="47.45559" lon="-0.63864">
        <ele>64</ele>
        <time>2015-08-25T17:46:57Z</time>
      </trkpt>
      <trkpt lat="47.4555" lon="-0.63847">
        <ele>64</ele>
        <time>2015-08-25T17:47:02Z</time>
      </trkpt>
      <trkpt lat="47.45544" lon="-0.6383">
        <ele>64</ele>
        <time>2015-08-25T17:47:08Z</time>
      </trkpt>
      <trkpt lat="47.45534" lon="-0.638">
        <ele>64</ele>
        <time>2015-08-25T17:47:14Z</time>
      </trkpt>
      <trkpt lat="47.45522" lon="-0.63763">
        <ele>64</ele>
        <time>2015-08-25T17:47:24Z</time>
      </trkpt>
      <trkpt lat="47.4552" lon="-0.63757">
        <ele>64</ele>
        <time>2015-08-25T17:47:26Z</time>
      </trkpt>
      <trkpt lat="47.45513" lon="-0.6373">
        <ele>64</ele>
        <time>2015-08-25T17:47:32Z</time>
      </trkpt>
      <trkpt lat="47.45506" lon="-0.63703">
        <ele>64</ele>
        <time>2015-08-25T17:47:38Z</time>
      </trkpt>
      <trkpt lat="47.45496" lon="-0.63684">
        <ele>64</ele>
        <time>2015-08-25T17:47:44Z</time>
      </trkpt>
      <trkpt lat="47.45493" lon="-0.63654">
        <ele>64</ele>
        <time>2015-08-25T17:47:51Z</time>
      </trkpt>
      <trkpt lat="47.45486" lon="-0.63633">
        <ele>64</ele>
        <time>2015-08-25T17:47:57Z</time>
      </trkpt>
      <trkpt lat="47.45482" lon="-0.63622">
        <ele>64</ele>
        <time>2015-08-25T17:48:02Z</time>
      </trkpt>
      <trkpt lat="47.45472" lon="-0.63607">
        <ele>64</ele>
        <time>2015-08-25T17:48:08Z</time>
      </trkpt>
      <trkpt lat="47.4546" lon="-0.6359">
        <ele>64</ele>
        <time>2015-08-25T17:48:14Z</time>
      </trkpt>
      <trkpt lat="47.45445" lon="-0.63568">
        <ele>64</ele>
        <time>2015-08-25T17:48:21Z</time>
      </trkpt>
      <trkpt lat="47.45427" lon="-0.63547">
        <ele>65</ele>
        <time>2015-08-25T17:48:30Z</time>
      </trkpt>
      <trkpt lat="47.45423" lon="-0.63541">
        <ele>65</ele>
        <time>2015-08-25T17:48:32Z</time>
      </trkpt>
      <trkpt lat="47.45416" lon="-0.63529">
        <ele>65</ele>
        <time>2015-08-25T17:48:38Z</time>
      </trkpt>
      <trkpt lat="47.45399" lon="-0.63505">
        <ele>65</ele>
        <time>2015-08-25T17:48:47Z</time>
      </trkpt>
      <trkpt lat="47.45392" lon="-0.63492">
        <ele>65</ele>
        <time>2015-08-25T17:48:52Z</time>
      </trkpt>
      <trkpt lat="47.45377" lon="-0.63474">
        <ele>65</ele>
        <time>2015-08-25T17:49:00Z</time>
      </trkpt>
      <trkpt lat="47.45371" lon="-0.6347">
        <ele>65</ele>
        <time>2015-08-25T17:49:02Z</time>
      </trkpt>
      <trkpt lat="47.45352" lon="-0.63442">
        <ele>66</ele>
        <time>2015-08-25T17:49:11Z</time>
      </trkpt>
      <trkpt lat="47.45342" lon="-0.63415">
        <ele>66</ele>
        <time>2015-08-25T17:49:19Z</time>
      </trkpt>
      <trkpt lat="47.45341" lon="-0.63411">
        <ele>66</ele>
        <time>2015-08-25T17:49:20Z</time>
      </trkpt>
      <trkpt lat="47.4533" lon="-0.63385">
        <ele>66</ele>
        <time>2015-08-25T17:49:27Z</time>
      </trkpt>
      <trkpt lat="47.45316" lon="-0.63342">
        <ele>67</ele>
        <time>2015-08-25T17:49:37Z</time>
      </trkpt>
      <trkpt lat="47.45314" lon="-0.63338">
        <ele>67</ele>
        <time>2015-08-25T17:49:38Z</time>
      </trkpt>
      <trkpt lat="47.453" lon="-0.63306">
        <ele>67</ele>
        <time>2015-08-25T17:49:48Z</time>
      </trkpt>
      <trkpt lat="47.45293" lon="-0.63293">
        <ele>67</ele>
        <time>2015-08-25T17:49:53Z</time>
      </trkpt>
      <trkpt lat="47.45288" lon="-0.63283">
        <ele>67</ele>
        <time>2015-08-25T17:49:56Z</time>
      </trkpt>
      <trkpt lat="47.4528" lon="-0.63264">
        <ele>67</ele>
        <time>2015-08-25T17:50:02Z</time>
      </trkpt>
      <trkpt lat="47.45267" lon="-0.63239">
        <ele>67</ele>
        <time>2015-08-25T17:50:09Z</time>
      </trkpt>
      <trkpt lat="47.45256" lon="-0.63226">
        <ele>67</ele>
        <time>2015-08-25T17:50:14Z</time>
      </trkpt>
      <trkpt lat="47.45238" lon="-0.63209">
        <ele>66</ele>
        <time>2015-08-25T17:50:20Z</time>
      </trkpt>
      <trkpt lat="47.45222" lon="-0.63192">
        <ele>66</ele>
        <time>2015-08-25T17:50:29Z</time>
      </trkpt>
      <trkpt lat="47.45216" lon="-0.63184">
        <ele>66</ele>
        <time>2015-08-25T17:50:33Z</time>
      </trkpt>
      <trkpt lat="47.45203" lon="-0.63167">
        <ele>66</ele>
        <time>2015-08-25T17:50:39Z</time>
      </trkpt>
      <trkpt lat="47.45194" lon="-0.63151">
        <ele>66</ele>
        <time>2015-08-25T17:50:44Z</time>
      </trkpt>
      <trkpt lat="47.45176" lon="-0.6313">
        <ele>66</ele>
        <time>2015-08-25T17:50:52Z</time>
      </trkpt>
      <trkpt lat="47.45171" lon="-0.63126">
        <ele>66</ele>
        <time>2015-08-25T17:50:56Z</time>
      </trkpt>
      <trkpt lat="47.45155" lon="-0.63112">
        <ele>66</ele>
        <time>2015-08-25T17:51:02Z</time>
      </trkpt>
      <trkpt lat="47.45143" lon="-0.63092">
        <ele>66</ele>
        <time>2015-08-25T17:51:09Z</time>
      </trkpt>
      <trkpt lat="47.4513" lon="-0.63073">
        <ele>65</ele>
        <time>2015-08-25T17:51:19Z</time>
      </trkpt>
      <trkpt lat="47.45129" lon="-0.63066">
        <ele>65</ele>
        <time>2015-08-25T17:51:22Z</time>
      </trkpt>
      <trkpt lat="47.45128" lon="-0.63053">
        <ele>65</ele>
        <time>2015-08-25T17:51:27Z</time>
      </trkpt>
      <trkpt lat="47.45129" lon="-0.63046">
        <ele>65</ele>
        <time>2015-08-25T17:51:32Z</time>
      </trkpt>
      <trkpt lat="47.4513" lon="-0.63041">
        <ele>65</ele>
        <time>2015-08-25T17:51:38Z</time>
      </trkpt>
      <trkpt lat="47.45138" lon="-0.63022">
        <ele>65</ele>
        <time>2015-08-25T17:51:44Z</time>
      </trkpt>
      <trkpt lat="47.45146" lon="-0.63007">
        <ele>65</ele>
        <time>2015-08-25T17:51:51Z</time>
      </trkpt>
      <trkpt lat="47.45152" lon="-0.62991">
        <ele>64</ele>
        <time>2015-08-25T17:51:56Z</time>
      </trkpt>
      <trkpt lat="47.45166" lon="-0.62969">
        <ele>64</ele>
        <time>2015-08-25T17:52:02Z</time>
      </trkpt>
      <trkpt lat="47.45182" lon="-0.62937">
        <ele>63</ele>
        <time>2015-08-25T17:52:11Z</time>
      </trkpt>
      <trkpt lat="47.45187" lon="-0.62914">
        <ele>62</ele>
        <time>2015-08-25T17:52:17Z</time>
      </trkpt>
      <trkpt lat="47.4519" lon="-0.62902">
        <ele>62</ele>
        <time>2015-08-25T17:52:20Z</time>
      </trkpt>
      <trkpt lat="47.45194" lon="-0.62866">
        <ele>62</ele>
        <time>2015-08-25T17:52:26Z</time>
      </trkpt>
      <trkpt lat="47.45184" lon="-0.62821">
        <ele>62</ele>
        <time>2015-08-25T17:52:37Z</time>
      </trkpt>
      <trkpt lat="47.45181" lon="-0.62809">
        <ele>62</ele>
        <time>2015-08-25T17:52:40Z</time>
      </trkpt>
      <trkpt lat="47.45179" lon="-0.62788">
        <ele>61</ele>
        <time>2015-08-25T17:52:45Z</time>
      </trkpt>
      <trkpt lat="47.45177" lon="-0.62765">
        <ele>61</ele>
        <time>2015-08-25T17:52:52Z</time>
      </trkpt>
      <trkpt lat="47.45174" lon="-0.62754">
        <ele>61</ele>
        <time>2015-08-25T17:52:56Z</time>
      </trkpt>
      <trkpt lat="47.45159" lon="-0.62709">
        <ele>62</ele>
        <time>2015-08-25T17:53:07Z</time>
      </trkpt>
      <trkpt lat="47.45158" lon="-0.62704">
        <ele>62</ele>
        <time>2015-08-25T17:53:09Z</time>
      </trkpt>
      <trkpt lat="47.45136" lon="-0.62683">
        <ele>63</ele>
        <time>2015-08-25T17:53:19Z</time>
      </trkpt>
      <trkpt lat="47.45124" lon="-0.62666">
        <ele>63</ele>
        <time>2015-08-25T17:53:25Z</time>
      </trkpt>
      <trkpt lat="47.45121" lon="-0.62655">
        <ele>63</ele>
        <time>2015-08-25T17:53:28Z</time>
      </trkpt>
      <trkpt lat="47.4512" lon="-0.62632">
        <ele>63</ele>
        <time>2015-08-25T17:53:35Z</time>
      </trkpt>
      <trkpt lat="47.45118" lon="-0.62625">
        <ele>63</ele>
        <time>2015-08-25T17:53:38Z</time>
      </trkpt>
      <trkpt lat="47.45112" lon="-0.62599">
        <ele>63</ele>
        <time>2015-08-25T17:53:46Z</time>
      </trkpt>
      <trkpt lat="47.45093" lon="-0.62581">
        <ele>64</ele>
        <time>2015-08-25T17:53:53Z</time>
      </trkpt>
      <trkpt lat="47.45083" lon="-0.62569">
        <ele>64</ele>
        <time>2015-08-25T17:53:58Z</time>
      </trkpt>
      <trkpt lat="47.4507" lon="-0.62551">
        <ele>64</ele>
        <time>2015-08-25T17:54:04Z</time>
      </trkpt>
      <trkpt lat="47.45068" lon="-0.62537">
        <ele>64</ele>
        <time>2015-08-25T17:54:09Z</time>
      </trkpt>
      <trkpt lat="47.45061" lon="-0.62513">
        <ele>64</ele>
        <time>2015-08-25T17:54:15Z</time>
      </trkpt>
      <trkpt lat="47.45056" lon="-0.625">
        <ele>65</ele>
        <time>2015-08-25T17:54:20Z</time>
      </trkpt>
      <trkpt lat="47.45048" lon="-0.62474">
        <ele>65</ele>
        <time>2015-08-25T17:54:29Z</time>
      </trkpt>
      <trkpt lat="47.45043" lon="-0.62439">
        <ele>65</ele>
        <time>2015-08-25T17:54:37Z</time>
      </trkpt>
      <trkpt lat="47.45042" lon="-0.62424">
        <ele>65</ele>
        <time>2015-08-25T17:54:41Z</time>
      </trkpt>
      <trkpt lat="47.45038" lon="-0.6242">
        <ele>65</ele>
        <time>2015-08-25T17:54:44Z</time>
      </trkpt>
      <trkpt lat="47.45035" lon="-0.62401">
        <ele>65</ele>
        <time>2015-08-25T17:54:53Z</time>
      </trkpt>
      <trkpt lat="47.45042" lon="-0.62389">
        <ele>65</ele>
        <time>2015-08-25T17:54:58Z</time>
      </trkpt>
      <trkpt lat="47.45054" lon="-0.62371">
        <ele>65</ele>
        <time>2015-08-25T17:55:07Z</time>
      </trkpt>
      <trkpt lat="47.45055" lon="-0.62366">
        <ele>65</ele>
        <time>2015-08-25T17:55:09Z</time>
      </trkpt>
      <trkpt lat="47.45063" lon="-0.62344">
        <ele>64</ele>
        <time>2015-08-25T17:55:15Z</time>
      </trkpt>
      <trkpt lat="47.4507" lon="-0.62327">
        <ele>64</ele>
        <time>2015-08-25T17:55:20Z</time>
      </trkpt>
      <trkpt lat="47.45075" lon="-0.62281">
        <ele>64</ele>
        <time>2015-08-25T17:55:30Z</time>
      </trkpt>
      <trkpt lat="47.45076" lon="-0.62273">
        <ele>64</ele>
        <time>2015-08-25T17:55:32Z</time>
      </trkpt>
      <trkpt lat="47.45075" lon="-0.62246">
        <ele>64</ele>
        <time>2015-08-25T17:55:39Z</time>
      </trkpt>
      <trkpt lat="47.45075" lon="-0.62228">
        <ele>64</ele>
        <time>2015-08-25T17:55:44Z</time>
      </trkpt>
      <trkpt lat="47.45072" lon="-0.62202">
        <ele>64</ele>
        <time>2015-08-25T17:55:55Z</time>
      </trkpt>
    </trkseg>
  </trk>
</gpx>